Miscellaneous Local Product
Issued by NWS Hastings, NE

Home | Current Version | Previous Version | Text Only | Print | Product List | Glossary On
Versions: 1 2 3 4 5 6 7 8 9 10 11 12 13 14 15 16 17 18 19 20 21 22 23 24 25 26 27 28 29 30 31 32 33 34 35 36 37 38 39 40 41 42 43 44 45 46 47 48 49 50
000
AXUS43 KGID 220202
MISGRI

GID CWA HOURLY WEATHER ROUNDUP
NATIONAL WEATHER SERVICE HASTINGS NE
800 PM CST TUE FEB 21 2017

NOTE: "FAIR" INDICATES FEW OR NO CLOUDS BELOW 12,000 FEET WITH NO
SIGNIFICANT WEATHER AND/OR OBSTRUCTIONS TO VISIBILITY.

...SOUTH CENTRAL NEBRASKA...

CITY           SKY/WX    TMP DP  RH WIND       PRES   REMARKS
GRAND ISLAND   CLEAR     56  36  47 S10       29.79F
HASTINGS       CLEAR     61  29  29 S6        29.81F
KEARNEY        CLEAR     61  28  29 SW6       29.81S
ORD            CLEAR     50  32  50 SW10      29.75S
YORK           CLEAR     55  32  41 S7        29.80S
AURORA         CLEAR     58  31  36 SW8       29.79F
LEXINGTON      CLEAR     59  27  29 SW8       29.81F
HOLDREGE       CLEAR     62  24  23 SW8       29.82S
HEBRON         CLEAR     58  26  28 S10       29.82F

...NEBRASKA PANHANDLE...

CITY           SKY/WX    TMP DP  RH WIND       PRES   REMARKS
CHADRON        CLEAR     55  26  32 SW12      29.74S
ALLIANCE       CLEAR     49  21  33 SW10      29.80F
SCOTTSBLUFF    CLEAR     63  19  18 W22G30    29.82F
SIDNEY         CLEAR     57  17  21 W17       29.86F

...WESTERN AND NORTH CENTRAL NEBRASKA...

CITY           SKY/WX    TMP DP  RH WIND       PRES   REMARKS
VALENTINE      CLEAR     53  30  41 SW12      29.72S
AINSWORTH      PTCLDY    53  35  50 SW7       29.74S
ONEILL         PTCLDY    57  35  43 SW8       29.72F
BROKEN BOW     CLEAR     51  30  44 CALM      29.78S
IMPERIAL       CLEAR     54  19  25 CALM      29.85S
NORTH PLATTE   CLEAR     53  26  35 CALM      29.81S
MCCOOK         CLEAR     57  25  29 SW8       29.83S

...EASTERN NEBRASKA...

CITY           SKY/WX    TMP DP  RH WIND       PRES   REMARKS
NORFOLK        CLEAR     58  35  42 S14       29.72F
SO SIOUX CITY  CLEAR     58  37  45 SW9       29.73S
TEKAMAH        CLEAR     48  39  71 S7        29.76F
COLUMBUS       CLEAR     61  32  33 S10       29.77S
ALBION         CLEAR     57  32  38 CALM      29.75F
OMAHA EPPLEY   CLEAR     58  38  47 S13       29.79F
OFFUTT AFB     CLEAR     53  39  61 E7        29.80F
MILLARD        CLEAR     60  40  48 SE7       29.80F
LINCOLN        CLEAR     54  30  40 S12       29.81S
NEBRASKA CITY  CLEAR     58  28  32 S14       29.83F
BEATRICE       CLEAR     60  35  39 S12       29.83F
FALLS CITY     CLEAR     57  35  43 S9        29.86S

...NORTHERN KANSAS...

CITY           SKY/WX    TMP DP  RH WIND       PRES   REMARKS
GOODLAND       CLEAR     63  19  18 S13       29.90S
HILL CITY      CLEAR     57  26  30 SW3       29.86F
NORTON         CLEAR     55  19  24 S9        29.83S
PHILLIPSBURG   CLEAR     61  27  27 S5        29.83F
SMITH CENTER   CLEAR     52  28  40 S10       29.83F
HAYS             N/A     57  25  29 S9        29.88S
RUSSELL        CLEAR     51  27  39 S12       29.86F
CONCORDIA      CLEAR     62  28  27 S15       29.84F
SALINA         CLEAR     50  34  54 S7        29.88F
TOPEKA         CLEAR     50  32  50 CALM      29.90R



USA.gov is the U.S. government's official web portal to all federal, state and local government web resources and services.